N4XWC Weather Reports


time (UTC)temp
F
wind
direction
speed
knots
gust
knots
rain 1hr
in
rain 24hr
in
rain mn
in
humidity
%
barometer
mb
20260904172224 92 0 0.0 0.0 0.00 0.00 0.00 60 1015.6
20260904172156 92 0 0.0 0.9 0.00 0.00 0.00 60 1015.6
20260904171722 92 85 0.9 2.6 0.00 0.00 0.00 60 1015.6
20260904171223 92 130 2.6 3.5 0.00 0.00 0.00 63 1015.8
20260904171156 92 123 2.6 2.6 0.00 0.00 0.00 63 1015.8
20260904170722 92 288 0.9 2.6 0.00 0.00 0.00 64 1015.8
20260904170223 92 96 1.7 1.7 0.00 0.00 0.00 62 1015.8
20260904170156 92 0 0.0 0.0 0.00 0.00 0.00 63 1015.8
20260904165722 91 0 0.0 0.0 0.00 0.00 0.00 62 1016.0
20260904165223 91 41 0.0 0.9 0.00 0.00 0.00 61 1016.0
20260904165155 91 92 0.9 0.9 0.00 0.00 0.00 62 1016.0
20260904164723 91 126 0.0 1.7 0.00 0.00 0.00 59 1016.0
20260904164222 91 100 1.7 2.6 0.00 0.00 0.00 60 1016.1
20260904164157 91 69 2.6 2.6 0.00 0.00 0.00 61 1016.1
20260904163722 90 11 1.7 1.7 0.00 0.00 0.00 64 1016.1
20260904163223 90 20 0.9 1.7 0.00 0.00 0.00 66 1016.1
20260904163156 90 20 0.9 1.7 0.00 0.00 0.00 66 1016.1
20260904162722 90 282 0.0 0.9 0.00 0.00 0.00 65 1016.1
20260904162223 90 140 0.9 0.9 0.00 0.00 0.00 68 1016.1
20260904162156 90 143 0.0 0.0 0.00 0.00 0.00 68 1016.1
20260904161722 90 144 0.0 0.9 0.00 0.00 0.00 69 1016.1
20260904161223 90 227 0.0 0.0 0.00 0.00 0.00 69 1016.2
20260904161155 90 227 0.0 1.7 0.00 0.00 0.00 69 1016.2
20260904160723 90 226 0.0 0.9 0.00 0.00 0.00 69 1016.2
20260904160224 90 13 0.0 0.0 0.00 0.00 0.00 68 1016.2
20260904160157 90 13 0.0 0.9 0.00 0.00 0.00 68 1016.2
20260904155723 90 357 0.0 0.9 0.00 0.00 0.00 68 1016.3
20260904155223 89 178 0.9 0.9 0.00 0.00 0.00 69 1016.3
20260904155156 89 193 1.7 2.6 0.00 0.00 0.00 69 1016.3
20260904154724 89 114 0.9 1.7 0.00 0.00 0.00 69 1016.3
20260904154223 89 215 0.9 1.7 0.00 0.00 0.00 69 1016.3
20260904154155 89 191 0.0 0.9 0.00 0.00 0.00 69 1016.3
20260904153724 90 216 0.0 1.7 0.00 0.00 0.00 68 1016.3
20260904153223 90 162 0.9 0.9 0.00 0.00 0.00 67 1016.3
20260904153157 90 155 0.9 1.7 0.00 0.00 0.00 67 1016.3
20260904152723 90 198 0.0 0.9 0.00 0.00 0.00 68 1016.1
20260904152230 89 104 0.9 1.7 0.00 0.00 0.00 68 1016.1
20260904152224 89 104 0.9 0.9 0.00 0.00 0.00 67 1016.1
20260904152156 89 104 0.9 1.7 0.00 0.00 0.00 68 1016.1
20260904151723 89 137 1.7 1.7 0.00 0.00 0.00 69 1016.1
20260904151222 88 102 0.9 0.9 0.00 0.00 0.00 68 1016.0
20260904151156 88 141 0.0 0.0 0.00 0.00 0.00 68 1016.0
20260904150723 88 151 0.9 0.9 0.00 0.00 0.00 70 1016.0
20260904150224 88 134 0.9 1.7 0.00 0.00 0.00 70 1016.0
20260904150155 87 151 1.7 1.7 0.00 0.00 0.00 71 1016.0
20260904145722 87 196 0.0 0.0 0.00 0.00 0.00 72 1015.9
20260904145223 86 112 0.9 0.9 0.00 0.00 0.00 74 1015.9
20260904145159 86 150 0.9 2.6 0.00 0.00 0.00 74 1015.9
20260904144724 86 251 0.0 0.9 0.00 0.00 0.00 74 1015.9
20260904144223 85 195 0.0 0.9 0.00 0.00 0.00 73 1015.9
20260904144156 85 184 0.0 0.9 0.00 0.00 0.00 73 1015.9
20260904143724 85 138 0.9 0.9 0.00 0.00 0.00 74 1015.9
20260904143245 84 154 0.0 0.0 0.00 0.00 0.00 75 1015.9
20260904143223 84 154 0.0 0.0 0.00 0.00 0.00 75 1015.9
20260904143156 84 154 0.0 0.0 0.00 0.00 0.00 75 1015.9
20260904142723 84 155 0.0 1.7 0.00 0.00 0.00 75 1015.9
20260904142224 84 230 0.9 0.9 0.00 0.00 0.00 75 1015.9
20260904142156 84 230 0.9 1.7 0.00 0.00 0.00 75 1015.9
20260904141722 84 178 0.0 0.0 0.00 0.00 0.00 74 1015.9
20260904141222 84 140 0.0 0.0 0.00 0.00 0.00 74 1015.8
20260904141158 84 140 0.0 0.9 0.00 0.00 0.00 74 1015.8
20260904140723 84 172 0.0 0.9 0.00 0.00 0.00 74 1015.8
20260904140223 84 172 0.0 0.0 0.00 0.00 0.00 77 1015.8
20260904140156 84 172 0.0 3.5 0.00 0.00 0.00 76 1015.8
20260904135722 83 161 0.0 0.0 0.00 0.00 0.00 76 1015.8
20260904135222 83 130 1.7 1.7 0.00 0.00 0.00 81 1015.8
20260904135155 83 165 0.0 0.9 0.00 0.00 0.00 81 1015.8
20260904134723 83 160 0.0 0.0 0.00 0.00 0.00 80 1015.8
20260904134222 83 193 0.0 0.9 0.00 0.00 0.00 81 1015.8
20260904134159 83 193 0.9 0.9 0.00 0.00 0.00 81 1015.8
20260904133723 82 158 0.0 0.0 0.00 0.00 0.00 81 1015.8
20260904133222 82 157 0.9 0.9 0.00 0.00 0.00 81 1015.8
20260904133157 82 167 0.9 0.9 0.00 0.00 0.00 81 1015.8
20260904132723 82 151 0.0 0.0 0.00 0.00 0.00 81 1015.9
20260904132223 81 151 0.0 0.9 0.00 0.00 0.00 82 1015.9
20260904132158 81 161 0.0 0.0 0.00 0.00 0.00 82 1015.9
20260904131722 81 164 0.9 1.7 0.00 0.00 0.00 84 1015.9
20260904131223 80 109 0.0 0.0 0.00 0.00 0.00 85 1015.8
20260904131156 80 109 0.0 0.0 0.00 0.00 0.00 85 1015.8
20260904130722 80 109 0.0 0.0 0.00 0.00 0.00 84 1015.8
20260904130223 79 126 1.7 1.7 0.00 0.00 0.00 86 1015.8
20260904130157 79 126 0.9 1.7 0.00 0.00 0.00 86 1015.8
20260904125723 79 150 0.9 0.9 0.00 0.00 0.00 87 1015.8
20260904125222 78 133 1.7 1.7 0.00 0.00 0.00 88 1015.8
20260904125157 78 164 0.9 1.7 0.00 0.00 0.00 88 1015.8
20260904124723 78 158 0.0 1.7 0.00 0.00 0.00 88 1015.8
20260904124222 78 138 0.9 1.7 0.00 0.00 0.00 88 1015.6
20260904124156 78 134 1.7 1.7 0.00 0.00 0.00 88 1015.6
20260904123723 78 141 0.9 1.7 0.00 0.00 0.00 88 1015.6
20260904123224 77 124 0.9 1.7 0.00 0.00 0.00 88 1015.6
20260904123156 77 116 1.7 1.7 0.00 0.00 0.00 88 1015.6
20260904122722 77 106 0.0 1.7 0.00 0.00 0.00 89 1015.4
20260904122223 77 110 0.0 0.0 0.00 0.00 0.00 90 1015.4
20260904122156 77 104 0.0 0.0 0.00 0.00 0.00 90 1015.4
20260904121722 77 145 0.0 0.0 0.00 0.00 0.00 90 1015.4
20260904121223 77 96 0.0 0.0 0.00 0.00 0.00 90 1015.2
20260904121157 76 117 0.0 0.0 0.00 0.00 0.00 90 1015.2
20260904120724 76 102 0.0 0.0 0.00 0.00 0.00 91 1015.2
20260904120222 76 79 0.9 0.9 0.00 0.00 0.00 91 1015.2
20260904120158 76 89 0.9 1.7 0.00 0.00 0.00 91 1015.2
20260904115723 76 72 0.0 1.7 0.00 0.00 0.00 91 1015.0
20260904115223 76 117 0.9 1.7 0.00 0.00 0.00 91 1015.0
20260904115157 76 100 1.7 1.7 0.00 0.00 0.00 91 1015.0
20260904114722 76 113 1.7 1.7 0.00 0.00 0.00 91 1015.0
20260904114223 76 107 0.0 0.0 0.00 0.00 0.00 91 1014.8
20260904114155 76 130 0.0 0.0 0.00 0.00 0.00 91 1014.8
20260904113723 76 134 0.0 0.0 0.00 0.00 0.00 91 1014.8
20260904113224 76 100 0.0 0.0 0.00 0.00 0.00 91 1014.8
20260904113156 76 109 0.0 0.0 0.00 0.00 0.00 91 1014.8
20260904112722 76 127 0.0 1.7 0.00 0.00 0.00 91 1014.8
20260904112223 76 106 0.0 0.0 0.00 0.00 0.00 90 1014.8
20260904112156 76 107 0.0 0.0 0.00 0.00 0.00 90 1014.8
20260904111724 76 107 0.0 0.0 0.00 0.00 0.00 91 1014.8
20260904111227 76 93 1.7 1.7 0.00 0.00 0.00 91 1014.6
20260904111222 76 100 0.9 1.7 0.00 0.00 0.00 91 1014.6
20260904111155 76 93 1.7 1.7 0.00 0.00 0.00 91 1014.6
20260904110723 76 100 0.0 0.9 0.00 0.00 0.00 91 1014.6
20260904110224 76 104 1.7 1.7 0.00 0.00 0.00 91 1014.6
20260904110157 76 104 0.9 1.7 0.00 0.00 0.00 91 1014.6
20260904105722 76 121 0.0 1.7 0.00 0.00 0.00 91 1014.6
20260904105223 76 127 0.9 1.7 0.00 0.00 0.00 91 1014.6
20260904105157 76 134 0.0 0.9 0.00 0.00 0.00 91 1014.6
20260904104724 76 138 1.7 1.7 0.00 0.00 0.00 91 1014.6
20260904104222 76 145 0.0 0.9 0.00 0.00 0.00 91 1014.4
20260904104155 76 145 0.0 0.0 0.00 0.00 0.00 91 1014.4
20260904103723 76 145 0.0 0.0 0.00 0.00 0.00 91 1014.4
20260904103224 76 145 0.0 0.0 0.00 0.00 0.00 91 1014.4
20260904103156 76 145 0.0 0.0 0.00 0.00 0.00 91 1014.4
20260904102723 76 145 0.0 0.0 0.00 0.00 0.00 91 1014.4
20260904102224 76 145 0.0 0.0 0.00 0.00 0.00 91 1014.4
20260904102157 76 145 0.0 0.0 0.00 0.00 0.00 91 1014.4
20260904101723 76 145 0.0 0.0 0.00 0.00 0.00 91 1014.4
20260904101223 76 145 0.9 0.9 0.00 0.00 0.00 91 1014.0
20260904101156 76 145 0.0 0.9 0.00 0.00 0.00 91 1014.0
20260904100722 76 145 0.0 0.9 0.00 0.00 0.00 91 1014.0
20260904100223 76 145 0.0 0.0 0.00 0.00 0.00 91 1014.0
20260904100156 76 145 0.0 0.0 0.00 0.00 0.00 91 1014.0
20260904095722 76 145 0.0 0.9 0.00 0.00 0.00 90 1014.0
20260904095229 76 145 0.0 0.0 0.00 0.00 0.00 90 1014.0
20260904095223 76 145 0.0 0.0 0.00 0.00 0.00 90 1014.0
20260904095155 76 145 0.0 0.0 0.00 0.00 0.00 90 1014.0
20260904094723 76 145 0.9 0.9 0.00 0.00 0.00 90 1014.0
20260904094509 76 147 0.0 0.0 0.00 0.00 0.00 90 1014.0
20260904094232 76 147 0.0 0.0 0.00 0.00 0.00 90 1014.0
20260904094223 76 145 0.0 0.0 0.00 0.00 0.00 90 1014.0
20260904094156 76 147 0.0 0.0 0.00 0.00 0.00 90 1014.0
20260904093724 77 147 0.0 0.0 0.00 0.00 0.00 90 1014.0
20260904093222 77 147 0.0 0.0 0.00 0.00 0.00 89 1014.0
20260904093155 77 147 0.0 0.0 0.00 0.00 0.00 89 1014.0
20260904092723 77 143 0.0 0.0 0.00 0.00 0.00 89 1014.0
20260904092224 77 141 0.0 0.9 0.00 0.00 0.00 88 1014.0
20260904092156 77 141 0.9 0.9 0.00 0.00 0.00 88 1014.0
20260904091722 77 141 1.7 1.7 0.00 0.00 0.00 88 1014.0
20260904091223 77 152 0.9 1.7 0.00 0.00 0.00 88 1013.8
20260904091156 77 141 0.9 1.7 0.00 0.00 0.00 88 1013.8
20260904090722 77 144 2.6 2.6 0.00 0.00 0.00 87 1013.8
20260904090223 78 145 0.0 1.7 0.00 0.00 0.00 87 1013.8
20260904090156 78 161 0.0 0.9 0.00 0.00 0.00 87 1013.8
20260904085722 78 145 0.0 0.9 0.00 0.00 0.00 87 1013.8
20260904085222 78 174 0.9 1.7 0.00 0.00 0.00 86 1013.8
20260904085156 78 157 0.9 2.6 0.00 0.00 0.00 86 1013.8
20260904084723 78 127 0.9 2.6 0.00 0.00 0.00 86 1013.8
20260904084222 78 126 1.7 2.6 0.00 0.00 0.00 86 1013.9
20260904084157 78 119 0.9 1.7 0.00 0.00 0.00 86 1013.9
20260904083722 78 117 0.9 1.7 0.00 0.00 0.00 86 1013.9
20260904083222 78 113 0.0 1.7 0.00 0.00 0.00 85 1013.9
20260904083157 78 88 0.0 1.7 0.00 0.00 0.00 85 1013.9
20260904082723 78 117 0.9 1.7 0.00 0.00 0.00 85 1013.9
20260904082223 78 126 1.7 1.7 0.00 0.00 0.00 85 1013.9
20260904082156 78 75 1.7 1.7 0.00 0.00 0.00 85 1013.9
20260904081722 78 119 0.9 1.7 0.00 0.00 0.00 85 1013.9
20260904081223 78 120 1.7 1.7 0.00 0.00 0.00 85 1013.9
20260904081156 78 124 0.9 1.7 0.00 0.00 0.00 85 1013.9
20260904080723 78 134 2.6 2.6 0.00 0.00 0.00 84 1013.9
20260904080222 78 137 1.7 1.7 0.00 0.00 0.00 84 1013.9
20260904080200 78 127 1.7 2.6 0.00 0.00 0.00 84 1013.9
20260904075722 78 90 0.0 0.0 0.00 0.00 0.00 84 1013.9
20260904075223 78 102 0.0 0.0 0.00 0.00 0.00 83 1013.9
20260904075156 78 86 0.0 0.9 0.00 0.00 0.00 83 1013.9
20260904074722 78 127 1.7 1.7 0.00 0.00 0.00 83 1013.9
20260904074227 78 104 0.9 2.6 0.00 0.00 0.00 82 1013.9
20260904074223 78 114 2.6 2.6 0.00 0.00 0.00 82 1013.9
20260904074156 78 104 0.9 2.6 0.00 0.00 0.00 82 1013.9
20260904073723 78 127 0.0 1.7 0.00 0.00 0.00 82 1013.9
20260904073222 78 120 0.9 2.6 0.00 0.00 0.00 81 1013.9
20260904073157 78 107 1.7 2.6 0.00 0.00 0.00 81 1013.9
20260904072723 78 89 1.7 2.6 0.00 0.00 0.00 81 1013.9
20260904072223 78 114 0.9 1.7 0.00 0.00 0.00 82 1013.9
20260904072158 78 120 0.9 1.7 0.00 0.00 0.00 82 1013.9
20260904071723 78 109 1.7 2.6 0.00 0.00 0.00 82 1013.9
20260904071224 79 82 0.0 0.9 0.00 0.00 0.00 83 1013.9
20260904071157 79 112 0.9 1.7 0.00 0.00 0.00 83 1013.9
20260904070722 79 112 0.9 1.7 0.00 0.00 0.00 83 1013.9
20260904070223 79 96 0.9 0.9 0.00 0.00 0.00 82 1013.9
20260904070156 79 90 0.9 1.7 0.00 0.00 0.00 82 1013.9
20260904065724 79 92 2.6 2.6 0.00 0.00 0.00 83 1013.9
20260904065222 79 58 2.6 2.6 0.00 0.00 0.00 83 1013.9
20260904065158 79 72 1.7 2.6 0.00 0.00 0.00 82 1013.9
20260904064723 79 76 1.7 1.7 0.00 0.00 0.00 82 1013.9
20260904064223 79 85 0.9 1.7 0.00 0.00 0.00 82 1013.9
20260904064157 79 86 0.9 0.9 0.00 0.00 0.00 82 1013.9
20260904063723 79 83 0.9 1.7 0.00 0.00 0.00 82 1013.9
20260904063224 79 88 0.9 0.9 0.00 0.00 0.00 82 1013.9
20260904063159 79 88 0.9 1.7 0.00 0.00 0.00 82 1013.9
20260904062723 79 96 0.9 1.7 0.00 0.00 0.00 82 1014.0
20260904062223 80 71 0.0 0.9 0.00 0.00 0.00 81 1014.0
20260904062156 80 71 0.9 0.9 0.00 0.00 0.00 81 1014.0
20260904061723 80 71 0.0 0.9 0.00 0.00 0.00 80 1014.0
20260904061224 80 71 0.0 0.9 0.00 0.00 0.00 80 1013.9
20260904061156 80 72 0.9 0.9 0.00 0.00 0.00 80 1013.9
20260904060722 80 80 1.7 1.7 0.00 0.00 0.00 80 1013.9
20260904060223 80 66 0.9 1.7 0.00 0.00 0.00 80 1013.9
20260904060156 80 56 0.9 0.9 0.00 0.00 0.00 80 1013.9
20260904055724 80 82 0.9 2.6 0.00 0.00 0.00 80 1014.1
20260904055222 80 93 0.9 1.7 0.00 0.00 0.00 80 1014.1
20260904055157 80 103 0.9 1.7 0.00 0.00 0.00 80 1014.1
20260904054724 80 100 0.9 0.9 0.00 0.00 0.00 80 1014.1
20260904054224 80 88 1.7 1.7 0.00 0.00 0.00 80 1014.2
20260904054155 80 97 0.0 1.7 0.00 0.00 0.00 80 1014.2
20260904053722 80 92 0.9 1.7 0.00 0.00 0.00 80 1014.2
20260904053223 80 100 0.9 1.7 0.00 0.00 0.00 80 1014.2
20260904053157 80 99 0.9 0.9 0.00 0.00 0.00 80 1014.2
20260904052723 80 85 0.9 0.9 0.00 0.00 0.00 79 1014.2
20260904052222 80 83 0.9 1.7 0.00 0.00 0.00 80 1014.2
20260904052156 80 90 1.7 1.7 0.00 0.00 0.00 80 1014.2
20260904051723 80 71 0.9 1.7 0.00 0.00 0.00 80 1014.2
20260904051223 80 69 0.9 2.6 0.00 0.00 0.00 80 1014.1
20260904051155 80 78 2.6 2.6 0.00 0.00 0.00 80 1014.1
20260904050722 80 85 0.9 0.9 0.00 0.00 0.00 80 1014.1
20260904050223 80 106 0.0 0.9 0.00 0.00 0.00 80 1014.1
20260904050157 80 106 0.0 1.7 0.00 0.00 0.00 80 1014.1
20260904045723 80 116 0.9 0.9 0.00 0.00 0.00 80 1014.2
20260904045224 80 117 0.0 1.7 0.00 0.00 0.00 80 1014.2
20260904045157 80 109 0.0 1.7 0.00 0.00 0.00 80 1014.2
20260904044722 80 103 0.0 0.0 0.00 0.00 0.00 80 1014.2
20260904044223 80 99 0.0 0.0 0.00 0.00 0.00 80 1014.1
20260904044156 80 99 0.0 0.0 0.00 0.00 0.00 80 1014.1
20260904043723 80 99 0.9 1.7 0.00 0.00 0.00 79 1014.1
20260904043222 80 93 0.9 0.9 0.00 0.00 0.00 79 1014.1
20260904043156 80 93 0.0 0.9 0.00 0.00 0.00 79 1014.1
20260904042723 80 90 0.9 1.7 0.00 0.00 0.00 79 1014.2
20260904042224 79 104 0.0 0.0 0.00 0.00 0.00 79 1014.2
20260904042159 79 89 0.0 0.0 0.00 0.00 0.00 78 1014.2
20260904041722 79 79 0.0 0.0 0.00 0.00 0.00 78 1014.2
20260904041223 79 69 1.7 1.7 0.00 0.00 0.00 79 1014.4
20260904041156 79 61 0.9 1.7 0.00 0.00 0.00 79 1014.4
20260904040724 79 72 1.7 1.7 0.00 0.00 0.00 79 1014.4
20260904040222 79 62 0.9 1.7 0.00 0.00 0.00 79 1014.4
20260904040157 79 65 0.9 1.7 0.00 0.00 0.00 79 1014.4
20260904035723 79 55 0.0 1.7 0.00 0.00 0.00 79 1014.6
20260904035223 78 69 0.9 1.7 0.00 0.00 0.00 80 1014.6
20260904035156 78 64 0.0 1.7 0.00 0.00 0.00 80 1014.6
20260904034722 78 76 1.7 1.7 0.00 0.00 0.00 80 1014.6
20260904034223 78 93 0.9 2.6 0.00 0.00 0.00 81 1014.6
20260904034156 78 59 2.6 2.6 0.00 0.00 0.00 81 1014.6
20260904033723 78 56 1.7 2.6 0.00 0.00 0.00 81 1014.6
20260904033222 78 90 1.7 2.6 0.00 0.00 0.00 82 1014.6
20260904033157 78 100 0.9 1.7 0.00 0.00 0.00 82 1014.6
20260904032723 78 65 2.6 2.6 0.00 0.00 0.00 83 1014.8
20260904032223 78 71 2.6 2.6 0.00 0.00 0.00 84 1014.8
20260904032158 78 64 0.9 2.6 0.00 0.00 0.00 84 1014.8
20260904031722 78 52 0.9 2.6 0.00 0.00 0.00 85 1014.8
20260904031223 78 83 0.0 0.0 0.00 0.00 0.00 84 1015.0
20260904031156 78 83 0.0 0.0 0.00 0.00 0.00 84 1015.0
20260904030723 78 119 0.0 0.0 0.00 0.00 0.00 84 1015.0
20260904030222 78 119 0.9 0.9 0.00 0.00 0.00 84 1015.0
20260904030157 78 119 0.0 0.0 0.00 0.00 0.00 84 1015.0
20260904025723 78 119 0.0 0.0 0.00 0.00 0.00 83 1014.9
20260904025223 78 119 0.0 0.0 0.00 0.00 0.00 83 1014.9
20260904025156 78 119 0.0 0.9 0.00 0.00 0.00 83 1014.9
20260904024722 79 119 0.9 1.7 0.00 0.00 0.00 82 1014.9
20260904024227 79 119 0.9 0.9 0.00 0.00 0.00 82 1014.8
20260904024223 79 119 0.0 0.9 0.00 0.00 0.00 82 1014.8
20260904024156 79 119 0.9 0.9 0.00 0.00 0.00 82 1014.8
20260904023723 79 119 0.0 0.0 0.00 0.00 0.00 82 1014.8
20260904023222 79 116 1.7 1.7 0.00 0.00 0.00 83 1014.8
20260904023157 79 119 0.9 1.7 0.00 0.00 0.00 83 1014.8
20260904022723 79 152 0.0 0.0 0.00 0.00 0.00 83 1014.6
20260904022223 80 152 0.0 1.7 0.00 0.00 0.00 82 1014.6
20260904022156 80 152 0.0 0.0 0.00 0.00 0.00 82 1014.6
20260904021722 80 212 0.0 0.0 0.00 0.00 0.00 81 1014.6
20260904021223 80 62 0.0 0.0 0.00 0.00 0.00 80 1014.6
20260904021156 80 62 0.0 0.0 0.00 0.00 0.00 80 1014.6
20260904020723 81 62 0.0 0.0 0.00 0.00 0.00 78 1014.6
20260904020222 81 62 0.0 0.0 0.00 0.00 0.00 77 1014.6
20260904020157 81 62 0.0 0.0 0.00 0.00 0.00 76 1014.6
20260904015723 81 62 0.0 0.0 0.00 0.00 0.00 73 1014.4
20260904015223 82 62 0.0 0.0 0.00 0.00 0.00 73 1014.4
20260904015156 82 62 0.0 0.0 0.00 0.00 0.00 73 1014.4
20260904014722 82 62 0.0 0.0 0.00 0.00 0.00 72 1014.4
20260904014223 82 90 2.6 2.6 0.00 0.00 0.00 71 1014.2
20260904014156 82 90 2.6 2.6 0.00 0.00 0.00 71 1014.2
20260904013723 82 92 2.6 2.6 0.00 0.00 0.00 72 1014.2
20260904013224 82 62 0.9 2.6 0.00 0.00 0.00 71 1014.2
20260904013156 82 88 1.7 1.7 0.00 0.00 0.00 71 1014.2
20260904012722 82 78 0.9 2.6 0.00 0.00 0.00 70 1014.0
20260904012223 83 110 1.7 1.7 0.00 0.00 0.00 70 1014.0
20260904012156 83 96 1.7 2.6 0.00 0.00 0.00 70 1014.0
20260904011724 83 76 1.7 2.6 0.00 0.00 0.00 69 1014.0
20260904011222 83 106 2.6 2.6 0.00 0.00 0.00 71 1014.0
20260904011156 83 80 1.7 2.6 0.00 0.00 0.00 71 1014.0
20260904010723 83 89 1.7 2.6 0.00 0.00 0.00 71 1014.0
20260904010223 83 78 1.7 1.7 0.00 0.00 0.00 70 1014.0
20260904010156 83 92 0.0 1.7 0.00 0.00 0.00 70 1014.0
20260904005722 83 79 0.9 2.6 0.00 0.00 0.00 69 1014.0
20260904005223 83 86 1.7 2.6 0.00 0.00 0.00 69 1014.0
20260904005155 83 80 2.6 3.5 0.00 0.00 0.00 69 1014.0
20260904004723 83 73 1.7 1.7 0.00 0.00 0.00 69 1014.0
20260904004222 83 72 0.9 1.7 0.00 0.00 0.00 70 1013.8
20260904004157 83 66 0.9 1.7 0.00 0.00 0.00 70 1013.8
20260904003723 83 72 1.7 1.7 0.00 0.00 0.00 70 1013.8
20260904003222 83 64 1.7 2.6 0.00 0.00 0.00 71 1013.8
20260904003157 83 76 0.9 1.7 0.00 0.00 0.00 71 1013.8
20260904002723 83 82 0.9 2.6 0.00 0.00 0.00 70 1013.8
20260904002223 83 106 1.7 3.5 0.00 0.00 0.00 72 1013.8
20260904002156 83 99 2.6 3.5 0.00 0.00 0.00 72 1013.8
20260904001722 83 78 1.7 1.7 0.00 0.00 0.00 73 1013.8
20260904001224 83 73 0.9 1.7 0.00 0.00 0.00 71 1013.8
20260904001156 83 65 0.9 1.7 0.00 0.00 0.00 71 1013.8
20260904000722 84 93 0.9 1.7 0.00 0.00 0.00 71 1013.8
20260904000223 84 121 1.7 2.6 0.00 0.00 0.00 71 1013.8
20260904000156 84 80 2.6 2.6 0.00 0.00 0.00 71 1013.8
20260903235724 84 66 1.7 2.6 0.00 0.00 0.00 72 1013.7
20260903235224 84 68 0.0 0.9 0.00 0.00 0.00 72 1013.7
20260903235157 84 51 0.0 0.9 0.00 0.00 0.00 72 1013.7
20260903234723 84 72 0.9 2.6 0.00 0.00 0.00 73 1013.7
20260903234223 84 82 1.7 2.6 0.00 0.00 0.00 72 1013.7
20260903234156 84 64 0.9 2.6 0.00 0.00 0.00 72 1013.7
20260903233724 85 99 0.9 2.6 0.00 0.00 0.00 71 1013.7
20260903233223 85 64 2.6 4.3 0.00 0.00 0.00 71 1013.7
20260903233157 85 41 1.7 2.6 0.00 0.00 0.00 71 1013.7
20260903232723 85 23 1.7 2.6 0.00 0.00 0.00 71 1013.6
20260903232224 86 88 1.7 3.5 0.00 0.00 0.00 70 1013.6
20260903232157 86 83 2.6 4.3 0.00 0.00 0.00 70 1013.6
20260903231722 86 65 0.9 3.5 0.00 0.00 0.00 70 1013.6
20260903231223 86 66 2.6 2.6 0.00 0.00 0.00 69 1013.6
20260903231156 86 66 2.6 3.5 0.00 0.00 0.00 69 1013.6
20260903230723 86 112 0.0 1.7 0.00 0.00 0.00 69 1013.6
20260903230222 87 32 2.6 5.2 0.00 0.00 0.00 69 1013.6
20260903230155 87 58 1.7 5.2 0.00 0.00 0.00 69 1013.6
20260903225722 88 89 7.0 8.7 0.00 0.00 0.00 67 1013.4
20260903225222 88 7 0.9 5.2 0.00 0.00 0.00 66 1013.4
20260903225155 88 66 3.5 3.5 0.00 0.00 0.00 66 1013.4
20260903224723 89 72 2.6 6.1 0.00 0.00 0.00 65 1013.4
20260903224222 90 44 1.7 2.6 0.00 0.00 0.00 67 1013.3
20260903224157 90 52 1.7 5.2 0.00 0.00 0.00 66 1013.3
20260903223722 90 112 3.5 9.6 0.00 0.00 0.00 68 1013.3
20260903223222 91 93 3.5 3.5 0.00 0.00 0.00 69 1013.3
20260903223157 91 71 0.9 1.7 0.00 0.00 0.00 69 1013.3
20260903222723 91 69 0.9 0.9 0.00 0.00 0.00 65 1013.2
20260903222223 92 27 1.7 2.6 0.00 0.00 0.00 65 1013.2
20260903222156 92 75 0.9 4.3 0.00 0.00 0.00 65 1013.2
20260903221722 92 107 1.7 3.5 0.00 0.00 0.00 66 1013.2
20260903221223 92 58 2.6 2.6 0.00 0.00 0.00 66 1013.0
20260903221156 92 88 2.6 3.5 0.00 0.00 0.00 65 1013.0
20260903220722 92 85 0.9 2.6 0.00 0.00 0.00 62 1013.0
20260903220223 92 124 0.9 1.7 0.00 0.00 0.00 59 1013.0
20260903220156 92 126 1.7 3.5 0.00 0.00 0.00 59 1013.0
20260903215724 92 93 2.6 2.6 0.00 0.00 0.00 60 1013.0
20260903215222 92 126 3.5 3.5 0.00 0.00 0.00 61 1013.0
20260903215157 92 86 3.5 4.3 0.00 0.00 0.00 61 1013.0
20260903214723 92 104 1.7 3.5 0.00 0.00 0.00 60 1013.0
20260903214223 92 59 0.9 2.6 0.00 0.00 0.00 60 1012.9
20260903214155 92 56 3.5 3.5 0.00 0.00 0.00 60 1012.9
20260903213723 93 54 2.6 3.5 0.00 0.00 0.00 60 1012.9
20260903213224 93 119 0.0 3.5 0.00 0.00 0.00 60 1012.9
20260903213156 93 112 3.5 3.5 0.00 0.00 0.00 58 1012.9
20260903212722 93 124 1.7 2.6 0.00 0.00 0.00 60 1012.9
20260903212223 94 82 0.9 1.7 0.00 0.00 0.00 60 1012.9
20260903212157 94 112 1.7 2.6 0.00 0.00 0.00 60 1012.9
20260903211724 94 109 0.9 3.5 0.00 0.00 0.00 58 1012.9
20260903211222 94 102 0.0 0.9 0.00 0.00 0.00 58 1013.0
20260903211155 94 100 0.9 0.9 0.00 0.00 0.00 58 1013.0
20260903210723 94 75 3.5 3.5 0.00 0.00 0.00 57 1013.0
20260903210224 94 104 2.6 3.5 0.00 0.00 0.00 57 1013.0
20260903210157 94 117 2.6 3.5 0.00 0.00 0.00 57 1013.0
20260903205722 95 140 2.6 4.3 0.00 0.00 0.00 57 1013.2
20260903205236 95 144 0.0 1.7 0.00 0.00 0.00 54 1013.2
20260903205223 95 148 1.7 2.6 0.00 0.00 0.00 54 1013.2
20260903205155 95 144 0.0 1.7 0.00 0.00 0.00 54 1013.2
20260903204723 95 100 1.7 3.5 0.00 0.00 0.00 54 1013.2
20260903204222 95 34 0.9 1.7 0.00 0.00 0.00 56 1013.3
20260903204157 95 34 1.7 1.7 0.00 0.00 0.00 56 1013.3
20260903203723 95 93 2.6 3.5 0.00 0.00 0.00 56 1013.3
20260903203223 95 131 1.7 1.7 0.00 0.00 0.00 57 1013.3
20260903203156 95 18 0.0 0.0 0.00 0.00 0.00 57 1013.3
20260903202722 94 18 0.0 0.9 0.00 0.00 0.00 54 1013.6
20260903202223 94 80 2.6 2.6 0.00 0.00 0.00 58 1013.6
20260903202155 94 41 2.6 2.6 0.00 0.00 0.00 58 1013.6
20260903201723 94 93 1.7 3.5 0.00 0.00 0.00 58 1013.6
20260903201222 94 169 1.7 2.6 0.00 0.00 0.00 58 1013.9
20260903201157 94 152 1.7 4.3 0.00 0.00 0.00 58 1013.9
20260903200723 94 186 0.9 2.6 0.00 0.00 0.00 58 1013.9
20260903200222 94 66 0.0 1.7 0.00 0.00 0.00 58 1013.9
20260903200156 94 37 0.0 2.6 0.00 0.00 0.00 58 1013.9
20260903195723 94 13 1.7 1.7 0.00 0.00 0.00 58 1014.2
20260903195223 94 48 0.9 1.7 0.00 0.00 0.00 58 1014.2
20260903195155 94 27 0.9 3.5 0.00 0.00 0.00 58 1014.2
20260903194722 94 48 1.7 4.3 0.00 0.00 0.00 59 1014.2
20260903194223 94 85 1.7 1.7 0.00 0.00 0.00 59 1014.4
20260903194157 94 89 0.9 1.7 0.00 0.00 0.00 58 1014.4
20260903193723 94 64 1.7 1.7 0.00 0.00 0.00 59 1014.4
20260903193222 94 71 0.0 1.7 0.00 0.00 0.00 58 1014.4
20260903193156 94 65 1.7 1.7 0.00 0.00 0.00 58 1014.4
20260903192723 94 17 1.7 1.7 0.00 0.00 0.00 60 1014.5
20260903192223 94 229 0.0 0.9 0.00 0.00 0.00 61 1014.5
20260903192157 94 120 0.9 0.9 0.00 0.00 0.00 61 1014.5
20260903191724 94 114 0.9 0.9 0.00 0.00 0.00 63 1014.5
20260903191223 93 48 0.0 0.9 0.00 0.00 0.00 61 1014.6
20260903191156 93 48 0.0 0.9 0.00 0.00 0.00 61 1014.6
20260903190722 93 127 0.9 3.5 0.00 0.00 0.00 60 1014.6
20260903190223 93 97 1.7 2.6 0.00 0.00 0.00 63 1014.6
20260903190156 93 10 0.9 1.7 0.00 0.00 0.00 63 1014.6
20260903185723 93 172 0.9 0.9 0.00 0.00 0.00 61 1014.9
20260903185222 93 102 0.0 0.0 0.00 0.00 0.00 59 1014.9
20260903185157 93 86 0.0 0.0 0.00 0.00 0.00 59 1014.9
20260903184723 93 157 0.9 2.6 0.00 0.00 0.00 60 1014.9
20260903184223 93 137 5.2 5.2 0.00 0.00 0.00 63 1014.9
20260903184156 93 138 0.9 1.7 0.00 0.00 0.00 63 1014.9
20260903183724 93 96 0.0 0.0 0.00 0.00 0.00 61 1014.9
20260903183223 93 127 0.0 0.9 0.00 0.00 0.00 59 1014.9
20260903183155 93 82 0.9 1.7 0.00 0.00 0.00 59 1014.9
20260903182722 93 182 0.9 0.9 0.00 0.00 0.00 62 1015.0
20260903182233 93 124 0.9 1.7 0.00 0.00 0.00 58 1015.0
20260903182223 93 124 0.9 0.9 0.00 0.00 0.00 58 1015.0
20260903182156 93 124 0.9 1.7 0.00 0.00 0.00 58 1015.0
20260903181723 93 78 2.6 4.3 0.00 0.00 0.00 58 1015.0
20260903181222 93 93 0.9 1.7 0.00 0.00 0.00 58 1015.3
20260903181201 93 69 1.7 4.3 0.00 0.00 0.00 58 1015.3
20260903180723 93 107 0.0 3.5 0.00 0.00 0.00 56 1015.3
20260903180223 93 78 1.7 5.2 0.00 0.00 0.00 58 1015.3
20260903180156 93 90 5.2 5.2 0.00 0.00 0.00 57 1015.3
20260903175723 92 102 5.2 5.2 0.00 0.00 0.00 59 1015.4
20260903175222 93 215 0.0 0.9 0.00 0.00 0.00 64 1015.4
20260903175155 93 157 0.9 2.6 0.00 0.00 0.00 64 1015.4
20260903174723 93 134 1.7 2.6 0.00 0.00 0.00 63 1015.4
20260903174222 93 27 1.7 4.3 0.00 0.00 0.00 62 1015.5
20260903174157 93 88 3.5 4.3 0.00 0.00 0.00 63 1015.5
20260903173722 93 69 2.6 4.3 0.00 0.00 0.00 62 1015.5
20260903173223 93 155 1.7 2.6 0.00 0.00 0.00 61 1015.5
20260903173200 93 133 1.7 2.6 0.00 0.00 0.00 61 1015.5
20260903172722 92 38 1.7 2.6 0.00 0.00 0.00 61 1015.6